Location: Unspecified
(0.0000°N, 0.0000°E)
Time: 18:57:03
(UTC+00:00)

CANX-2 - Visible Passes

Search period start: 17 May 2026 00:00
Search period end: 27 May 2026 00:00
Orbit: 542 x 558 km, 97.9° (Epoch: 17 May)

Date Brightness Start Highest point End Pass type
(mag) Time Alt. Az. Time Alt. Az. Time Alt. Az.
17 May ? 03:32:06 10° NE 03:33:29 18° ENE 03:33:29 18° ENE visible
18 May ? 03:28:05 10° NE 03:29:16 16° ENE 03:29:16 16° ENE visible
19 May ? 03:24:07 10° NE 03:25:04 15° ENE 03:25:04 15° ENE visible
19 May ? 05:00:01 10° NW 05:00:46 11° WNW 05:00:46 11° WNW visible
20 May ? 03:20:10 10° ENE 03:20:50 13° ENE 03:20:50 13° ENE visible
20 May ? 04:55:16 10° NW 04:56:34 13° WNW 04:56:34 13° WNW visible
21 May ? 03:16:18 10° ENE 03:16:38 11° ENE 03:16:38 11° ENE visible
21 May ? 04:50:40 10° NW 04:52:20 15° WNW 04:52:20 15° WNW visible
22 May ? 04:46:09 10° NNW 04:48:07 18° WNW 04:48:07 18° WNW visible
23 May ? 04:41:41 10° NNW 04:43:53 20° WNW 04:43:53 20° WNW visible
24 May ? 04:37:16 10° NNW 04:39:38 23° WNW 04:39:38 23° WNW visible
25 May ? 04:32:53 10° NNW 04:35:24 26° NW 04:35:24 26° NW visible
26 May ? 04:28:31 10° NNW 04:31:09 30° NW 04:31:09 30° NW visible
